Tracking 19490 objects as of 23-Jan-2019
HD Live streaming from Space Station
objects crossing your sky now

USA 278

Track USA 278 now!


NORAD ID: 42941
Int'l Code: 2017-056A
Perigee: 1,855.1 km
Apogee: 38,513.6 km
Inclination: 63.6 °
Period: 717.8 minutes
Semi major axis: 26555 km
RCS: Unknown
Launch date: September 24, 2017
Source: United States (US)
Launch site: AIR FORCE WESTERN TEST RANGE (AFWTR)
aabbcc
Your satellite tracking list
Your tracking list is empty




NASA's NSSDC Master Catalog

Two Line Element Set (TLE):
1 42941U 17056A   18325.74834912 0.00000000  00000-0  00000-0 0    09
2 42941  63.6330 122.1620 6902279 267.1696  18.8460  2.00620000    06
Source of the keplerian elements: McCants